Weather History for Toluca Jose Maria, Mexico

Change the Weather History Date:

Friday, August 23, 2013

  Actual Average Record
Temperature  
Mean Temperature 61 °F -  
Max Temperature 69 °F 67 °F 73 °F (1997)
Min Temperature 53 °F 48 °F 41 °F (2001)
Degree Days  
Heating Degree Days 4    
Growing Degree Days 11 (Base 50)    
Moisture  
Dew Point 50 °F    
Average Humidity 72    
Maximum Humidity 88    
Minimum Humidity 49    
Precipitation  
Precipitation 0.00 in - - ()
Sea Level Pressure  
Sea Level Pressure 30.14 in    
Wind  
Wind Speed 3 mph ()    
Max Wind Speed 17 mph    
Max Gust Speed -    
Visibility 5.5 miles    
Events Rain , Thunderstorm    
Averages and records for this station are not official NWS values.
T = Trace of Precipitation, MM = Missing Value Source: Averaged Metar Reports

Daily Weather History Graph

Daily Weather History Graph

Search for Another Location

Airport:

Trip Planner

Search our weather history database for the weather conditions in past years. The results will help you decide how hot, cold, wet, or windy it might be!

Date:

Astronomy

Aug. 23, 2013 Rise Set
Actual Time 7:21 AM CDT 8:00 PM CDT
Civil Twilight 6:58 AM CDT 8:22 PM CDT
Nautical Twilight 6:32 AM CDT 8:48 PM CDT
Astronomical Twilight 6:05 AM CDT 9:15 PM CDT
Moon 9:56 PM CDT (8/23) 9:46 AM CDT (8/23)
Length of Visible Light 13h 23m
Length of Day
12h 38m
Waning Gibbous, 91% of the Moon is Illuminated
Aug 23
Waning Gibbous
Aug 28
Last Quarter
Sep 5
New
Sep 12
First Quarter
Sep 19
Full

Hourly Weather History & Observations

Time (CDT) Temp. Dew Point Humidity Pressure Visibility Wind Dir Wind Speed Gust Speed Precip Events Conditions
12:45 AM 55.4 °F 50.0 °F 82% 29.78 in 6.0 mi Calm Calm - N/A   Overcast
1:45 AM 55.4 °F 50.0 °F 82% 30.37 in 3.0 mi SE 3.5 mph - N/A Rain Light Rain
2:45 AM 55.4 °F 51.8 °F 88% 30.36 in 5.0 mi Calm Calm - N/A   Overcast
3:45 AM 55.4 °F 50.0 °F 82% 29.83 in 5.0 mi Calm Calm - N/A   Overcast
4:45 AM 53.6 °F 50.0 °F 88% 30.32 in 5.0 mi Calm Calm - N/A   Overcast
5:45 AM 53.6 °F 50.0 °F 88% 30.32 in 5.0 mi Calm Calm - N/A   Mostly Cloudy
6:45 AM 53.6 °F 50.0 °F 88% 29.83 in 5.0 mi Calm Calm - N/A   Mostly Cloudy
7:43 AM 53.6 °F 48.2 °F 82% 30.33 in 3.0 mi Calm Calm - N/A   Haze
8:44 AM 55.4 °F 48.2 °F 77% 30.35 in 5.0 mi Calm Calm - N/A   Mostly Cloudy
9:42 AM 59.0 °F 50.0 °F 72% 29.80 in 5.0 mi East 4.6 mph - N/A   Mostly Cloudy
10:44 AM 60.8 °F 48.2 °F 63% 30.36 in 5.0 mi East 4.6 mph - N/A   Mostly Cloudy
11:46 AM 64.4 °F 50.0 °F 59% 30.36 in 6.0 mi NNE 5.8 mph - N/A   Mostly Cloudy
12:41 PM 64.4 °F 48.2 °F 56% 29.75 in 6.0 mi Calm Calm - N/A   Mostly Cloudy
1:45 PM 69.8 °F 50.0 °F 49% 30.32 in 7.0 mi East 9.2 mph - N/A   Mostly Cloudy
2:44 PM 68.0 °F 48.2 °F 49% 30.30 in 7.0 mi NNE 9.2 mph - N/A   Mostly Cloudy
3:40 PM 69.8 °F 53.6 °F 56% 29.64 in 7.0 mi SE 17.3 mph - N/A   Mostly Cloudy
4:44 PM 66.2 °F 50.0 °F 56% 30.27 in 7.0 mi South 12.7 mph - N/A   Mostly Cloudy
5:43 PM 66.2 °F 48.2 °F 52% 30.25 in 7.0 mi South 8.1 mph - N/A   Mostly Cloudy
6:42 PM 64.4 °F 50.0 °F 59% 29.67 in 7.0 mi SSW 9.2 mph - N/A   Mostly Cloudy
7:43 PM 59.0 °F 50.0 °F 72% 30.28 in 6.0 mi NW 5.8 mph - N/A   Mostly Cloudy
8:17 PM 59.0 °F 50.0 °F 72% 30.29 in 6.0 mi ENE 5.8 mph - N/A Thunderstorm Thunderstorm
8:42 PM 57.2 °F 51.8 °F 82% 30.30 in 5.0 mi NNE 5.8 mph - N/A Thunderstorm Thunderstorm
9:46 PM 57.2 °F 51.8 °F 82% 29.80 in 5.0 mi SE 6.9 mph - N/A Rain , Thunderstorm Light Thunderstorms and Rain
10:41 PM 55.4 °F 51.8 °F 88% 30.36 in 5.0 mi South 4.6 mph - N/A Rain Light Rain
11:43 PM 55.4 °F 50.0 °F 82% 30.37 in 5.0 mi Calm Calm - N/A   Mostly Cloudy